Regional Weather Roundup
Issued by NWS Memphis, TN

Home | Current Version | Previous Version | Text Only | Print | Product List | Glossary On
Versions: 1 2 3 4 5 6 7 8 9 10 11 12 13 14 15 16 17 18 19 20 21 22 23 24 25 26 27 28 29 30 31 32 33 34 35 36 37 38 39 40 41 42 43 44 45 46 47 48 49 50
000
ASUS44 KMEG 240810
RWRMEG
MEMPHIS CWA HOURLY WEATHER ROUNDUP
NATIONAL WEATHER SERVICE MEMPHIS TN
300 AM CDT SUN JUL 24 2016

...WEST TENNESSEE...

CITY           SKY/WX    TMP DP  RH WIND       PRES   REMARKS
MEMPHIS INTL   CLOUDY    80  73  79 CALM      29.94F
NWS MEMPHIS      N/A     76 N/A N/A MISG        N/A
JACKSON        MOCLDY    76  75  97 CALM      29.96S
LEXINGTON      CLEAR     75  75 100 CALM      29.97S
DYERSBURG      PTCLDY    75  73  94 MISG      29.95
UNION CITY     CLEAR     75  75 100 CALM      29.95R
PARIS          CLEAR     72  72 100 CALM      29.98R


...EASTERN ARKANSAS...

CITY           SKY/WX    TMP DP  RH WIND       PRES   REMARKS
JONESBORO      PTCLDY    76  73  91 CALM      29.93S
WEST MEMPHIS   MOCLDY    76  74  93 S5        29.92F
BATESVILLE     CLOUDY    73  72  94 E3        29.94R
NEWPORT        MOCLDY    76  76 100 S5        29.93F
WALNUT RIDGE   PTCLDY    77  73  88 CALM      29.92S
BLYTHEVILLE    CLOUDY    79  76  90 CALM      29.93F
STUTTGART      CLOUDY    75  70  83 CALM      29.93S
PINE BLUFF     CLOUDY    74  72  93 W3        29.93F
MONTICELLO     CLEAR     75  73  93 CALM      29.93F


...NORTH MISSISSIPPI...

CITY           SKY/WX    TMP DP  RH WIND       PRES   REMARKS
TUPELO         CLOUDY    78  74  87 CALM      29.97S
OXFORD         PTCLDY    73  73 100 SE3       29.98S
BATESVILLE     CLOUDY    75  74  95 CALM      29.96S FOG
TUNICA         CLOUDY    77  73  88 S5        29.95S
CLARKSDALE     CLEAR     77  77 100 SE6       29.94S
CORINTH        PTCLDY    75  73  94 CALM      29.97F
GREENWOOD      PTCLDY    74  70  87 CALM      29.94F
COLUMBUS       PTCLDY    77  77 100 NE5       29.96S
GOLDEN TRIANGL CLOUDY    77  72  83 CALM      29.96S


...SOUTHEAST MISSOURI...

CITY           SKY/WX    TMP DP  RH WIND       PRES   REMARKS
KENNETT        CLOUDY    79  77  94 MISG      29.92F FOG
WEST PLAINS    CLEAR     75  69  81 CALM      29.98F
POPLAR BLUFF   CLEAR     77  75  93 S3        29.93F
CAPE GIRARDEAU CLEAR     77  75  93 CALM      29.93S


...NORTHWEST ALABAMA...

CITY           SKY/WX    TMP DP  RH WIND       PRES   REMARKS
MUSCLE SHOALS  CLOUDY    74  71  91 CALM      29.99F


...MIDDLE TENNESSEE...

CITY           SKY/WX    TMP DP  RH WIND       PRES   REMARKS
NASHVILLE      PTCLDY    75  69  81 CALM      29.99F
CLARKSVILLE    CLEAR     75  73  93 E5        29.98S
COLUMBIA       CLEAR    N/A N/A N/A CALM      29.98S


...WESTERN KENTUCKY...

CITY           SKY/WX    TMP DP  RH WIND       PRES   REMARKS
PADUCAH        CLEAR     76  73  91 SE5       29.94F
FORT CAMPBELL  CLEAR     76  75  95 E1        29.98R


...CENTRAL ARKANSAS...

CITY           SKY/WX    TMP DP  RH WIND       PRES   REMARKS
LITTLE ROCK    CLOUDY    78  72  81 S6        29.93F


SKY/WX REPORTED AS FAIR MEANS FEW OR NO CLOUDS BELOW
12 THOUSAND FEET.




USA.gov is the U.S. government's official web portal to all federal, state and local government web resources and services.